Content
SEND FEEDBACK

Daily
Averages
Monthly
Summary
United States of America

ANN ARBOR, MICHIGAN


Home > North America > United States > Michigan
Elevation: 759 feet     Latitude: 42 17N     Longitude: 083 43W

WEATHER
 
SELECT A DAY
Number of Records: 203,168;   Date Range: 1/1/95 - 7/22/14
 
SHARE

PRINT THIS DATA

[ ← Previous Day ]
WEATHER ALMANAC - MARCH 14, 2013
[ Next Day → ]
[ °C ]   °F
Weather ElementAverageHighLow
Temperature30.4 °F41 °F (3:53 pm)19 °F (6:53 am)
Dewpoint17.2 °F21 °F (7:53 pm)12 °F (1:53 am)
Humidity60.1 %85 % (6:53 am)38 % (3:53 pm)
Barometer30.21 in30.28 in (9:53 am)30.10 in (11:53 pm)
Wind Speed7.4 mph12.7 mph (11:53 am)
Wind Gust19.6 mph (11:53 am)
Weather ElementAverage
Visibility10 mi
Wind DirectionWNW (276.4 °)

Weather ElementTotal
Precipitation---
Heating Degree Days35 (Base 65)
Averaged from 22 records on March 14, 2013
WEATHER CONDITIONS BREAKOUT
WIND DIRECTION BREAKOUT
WEATHER BY HOUR - MARCH 14, 2013
[ °C ]   °F
Local TimeTemperatureDewpointHumidityBarometerVisibilityWind DirectionWind SpeedGust SpeedPrecipitationEventsConditions
1:53 AM25.0 °F12.0 °F58 %30.23 in10.0 miWNW (290°)9.2 mphClear
2:53 AM24.1 °F14.0 °F65 %30.23 in10.0 miWest (280°)9.2 mphClear
3:53 AM24.1 °F15.1 °F69 %30.24 in10.0 miWest (280°)10.4 mphClear
4:53 AM23.0 °F16.0 °F74 %30.23 in10.0 miWest (260°)6.9 mphClear
5:53 AM21.9 °F15.1 °F75 %30.24 in10.0 miWNW (290°)3.5 mphClear
6:53 AM19.0 °F15.1 °F85 %30.25 in10.0 miWSW (250°)4.6 mphClear
7:53 AM19.0 °F15.1 °F85 %30.26 in10.0 miWSW (250°)4.6 mphClear
8:53 AM24.1 °F18.0 °F77 %30.27 in10.0 miWSW (250°)4.6 mphClear
9:53 AM28.0 °F17.1 °F63 %30.28 in10.0 miNW (310°)8.1 mphClear
10:53 AM32.0 °F17.1 °F54 %30.28 in10.0 miNW (320°)9.2 mphClear
11:53 AM34.0 °F18.0 °F52 %30.26 in10.0 miNW (310°)12.7 mph19.6 mphClear
1:53 PM39.0 °F19.9 °F46 %30.23 in10.0 miWest (270°)12.7 mphPartly Cloudy
2:53 PM39.9 °F18.0 °F41 %30.20 in10.0 miWNW (290°)11.5 mph18.4 mphClear
3:53 PM41.0 °F17.1 °F38 %30.19 in10.0 miNW (310°)8.1 mphClear
4:53 PM41.0 °F17.1 °F38 %30.18 in10.0 miWNW (290°)8.1 mph18.4 mphClear
5:53 PM39.9 °F16.0 °F38 %30.16 in10.0 miWNW (290°)6.9 mphClear
6:53 PM39.0 °F16.0 °F39 %30.15 in10.0 miWNW (290°)10.4 mphClear
7:53 PM34.0 °F21.0 °F59 %30.15 in10.0 miWSW (250°)6.9 mphClear
8:53 PM32.0 °F19.9 °F61 %30.14 in10.0 miSW (230°)4.6 mphClear
9:53 PM32.0 °F21.0 °F64 %30.13 in10.0 miWSW (250°)3.5 mphClear
10:53 PM28.0 °F19.9 °F72 %30.12 in10.0 miWest (260°)4.6 mphClear
11:53 PM28.9 °F19.9 °F69 %30.10 in10.0 miWest (260°)3.5 mphClear
Hourly data recorded from KARB, located miles away from Ann Arbor, Michigan







STORIES FROM OUR PARTNERS